Miles City, MT

5:08 AM MDT on June 29, 2017 (GMT -0600)
Wiley

Weather History for KMLS - January, 2012

Change the Weather History Date:

Tuesday, January 10, 2012

  Actual Average Record
Temperature  
Mean Temperature 40 °F 19 °F  
Max Temperature 54 °F 29 °F 54 °F (1992)
Min Temperature 25 °F 8 °F -29 °F (1982)
Degree Days  
Heating Degree Days 25 46  
Month to date heating degree days 293 461  
Since 1 July heating degree days 2942 3645  
Cooling Degree Days 0 0  
Month to date cooling degree days 0 0  
Year to date cooling degree days 0 0  
Moisture  
Dew Point 27 °F    
Average Humidity 71    
Maximum Humidity 92    
Minimum Humidity 49    
Precipitation  
Precipitation 0.02 in 0.01 in 0.34 in (1971)
Month to date precipitation 0.02 0.12  
Year to date precipitation 0.02 0.12  
Sea Level Pressure  
Sea Level Pressure 29.94 in    
Wind  
Wind Speed 14 mph (NW)    
Max Wind Speed 32 mph    
Max Gust Speed 46 mph    
Visibility 10 miles    
Events Rain , Snow    
T = Trace of Precipitation, MM = Missing Value Source: NWS Daily Summary

Daily Weather History Graph

Daily Weather History Graph

Search for Another Location

Airport or City:

Trip Planner

Search our weather history database for the weather conditions in past years. The results will help you decide how hot, cold, wet, or windy it might be!

Date:

Astronomy

Jan. 10, 2012 Rise Set
Actual Time 7:45 AM MST 4:36 PM MST
Civil Twilight 7:11 AM MST 5:10 PM MST
Nautical Twilight 6:33 AM MST 5:48 PM MST
Astronomical Twilight 5:57 AM MST 6:24 PM MST
Moon 6:39 PM MST (1/10) 8:18 AM MST (1/10)
Length of Visible Light 9h 59m
Length of Day
8h 51m
Full, 98% of the Moon is Illuminated
Jan 10
Full
Jan 16
Last Quarter
Jan 23
New
Jan 30
First Quarter
Feb 7
Full

Hourly Weather History & Observations

Time (MST) Temp. Windchill Dew Point Humidity Pressure Visibility Wind Dir Wind Speed Gust Speed Precip Events Conditions
12:53 AM 35.1 °F 32.2 °F 21.9 °F 59% 29.98 in 10.0 mi SW 3.5 mph - N/A   Clear
1:53 AM 36.0 °F 30.3 °F 21.9 °F 57% 29.95 in 10.0 mi SSW 6.9 mph - N/A   Clear
2:53 AM 33.1 °F 26.1 °F 23.0 °F 66% 29.94 in 10.0 mi SE 8.1 mph - N/A   Clear
3:53 AM 32.0 °F 25.6 °F 23.0 °F 69% 29.93 in 10.0 mi SSE 6.9 mph - N/A   Clear
4:53 AM 32.0 °F 24.8 °F 23.0 °F 69% 29.91 in 10.0 mi SE 8.1 mph - N/A   Clear
5:53 AM 33.1 °F 25.5 °F 23.0 °F 66% 29.90 in 10.0 mi SSE 9.2 mph - N/A   Scattered Clouds
6:53 AM 33.8 °F 25.8 °F 24.8 °F 70% 29.83 in 10.0 mi SSE 10.4 mph - N/A   Overcast
7:53 AM 32.0 °F 25.6 °F 24.1 °F 73% 29.85 in 10.0 mi SSE 6.9 mph - N/A   Scattered Clouds
8:53 AM 33.1 °F 27.7 °F 24.1 °F 70% 29.83 in 10.0 mi South 5.8 mph - N/A   Clear
9:53 AM 37.9 °F - 25.0 °F 60% 29.81 in 10.0 mi Calm Calm - N/A   Overcast
10:53 AM 42.1 °F 36.1 °F 26.1 °F 53% 29.78 in 10.0 mi SSW 10.4 mph - N/A   Overcast
11:53 AM 54.0 °F - 28.0 °F 37% 29.75 in 10.0 mi West 23.0 mph 31.1 mph 0.00 in Rain Light Rain
12:24 PM 51.8 °F - 26.6 °F 38% 29.73 in 10.0 mi NW 15.0 mph 23.0 mph 0.00 in   Mostly Cloudy
12:53 PM 52.0 °F - 27.0 °F 38% 29.75 in 10.0 mi NW 11.5 mph - 0.00 in   Mostly Cloudy
1:53 PM 46.9 °F - 28.9 °F 50% 29.78 in 10.0 mi North 15.0 mph - N/A   Overcast
2:53 PM 39.9 °F 32.9 °F 36.0 °F 86% 29.83 in 10.0 mi NNW 11.5 mph - 0.00 in Rain Light Rain
3:26 PM 39.2 °F 32.0 °F 35.6 °F 87% 29.79 in 10.0 mi NNW 11.5 mph - 0.00 in Rain Light Rain
3:49 PM 37.4 °F 27.5 °F 35.6 °F 93% 29.81 in 10.0 mi NW 18.4 mph 23.0 mph 0.01 in Rain Light Rain
3:53 PM 37.9 °F 29.2 °F 35.1 °F 89% 29.87 in 9.0 mi NW 15.0 mph 23.0 mph 0.01 in Rain Light Rain
4:09 PM 37.4 °F 28.9 °F 33.8 °F 87% 29.82 in 10.0 mi NW 13.8 mph - 0.01 in Rain Light Rain
4:14 PM 37.4 °F 28.9 °F 35.6 °F 93% 29.83 in 10.0 mi NW 13.8 mph - 0.01 in Rain Light Rain
4:22 PM 37.4 °F 28.5 °F 33.8 °F 87% 29.83 in 9.0 mi NW 15.0 mph - 0.01 in Rain Light Rain
4:41 PM 35.6 °F 23.4 °F 33.8 °F 93% 29.85 in 10.0 mi NNW 25.3 mph 34.5 mph 0.01 in Rain Light Rain
4:53 PM 34.0 °F 21.8 °F 30.9 °F 89% 29.93 in 5.0 mi NNW 23.0 mph 34.5 mph 0.01 in Snow Light Snow
5:45 PM 32.0 °F 18.9 °F 28.4 °F 87% 29.91 in 9.0 mi North 24.2 mph 32.2 mph 0.00 in   Overcast
5:53 PM 32.0 °F 19.8 °F 28.4 °F 87% 29.92 in 9.0 mi North 20.7 mph 31.1 mph N/A Snow Light Snow
6:15 PM 32.0 °F 19.8 °F 28.4 °F 87% 29.94 in 10.0 mi NNW 20.7 mph 27.6 mph 0.00 in   Overcast
6:53 PM 30.9 °F 18.4 °F 27.0 °F 85% 30.05 in 10.0 mi NNW 20.7 mph 31.1 mph 0.00 in   Overcast
7:53 PM 30.0 °F 17.5 °F 26.1 °F 85% 30.10 in 10.0 mi NNW 19.6 mph 26.5 mph N/A   Overcast
8:53 PM 30.0 °F 17.9 °F 26.1 °F 85% 30.12 in 9.0 mi NW 18.4 mph - 0.00 in Snow Light Snow
9:01 PM 30.2 °F 18.9 °F 26.6 °F 86% 30.05 in 7.0 mi NW 16.1 mph - 0.00 in Snow Light Snow
9:25 PM 30.2 °F 17.4 °F 26.6 °F 86% 30.04 in 8.0 mi NW 20.7 mph - 0.00 in Snow Light Snow
9:46 PM 30.2 °F 16.8 °F 26.6 °F 86% 30.06 in 10.0 mi NW 23.0 mph 29.9 mph 0.00 in   Overcast
9:53 PM 30.0 °F 16.0 °F 26.1 °F 85% 30.13 in 10.0 mi NNW 25.3 mph 32.2 mph 0.00 in   Overcast
10:18 PM 28.4 °F 13.8 °F 24.8 °F 86% 30.08 in 9.0 mi NNW 25.3 mph 35.7 mph 0.00 in   Overcast
10:50 PM 26.6 °F 10.8 °F 21.2 °F 80% 30.10 in 10.0 mi NNW 27.6 mph 36.8 mph 0.00 in   Mostly Cloudy
10:53 PM 26.1 °F 10.7 °F 21.9 °F 84% 30.17 in 10.0 mi NNW 25.3 mph 34.5 mph 0.00 in   Mostly Cloudy
11:22 PM 26.6 °F 11.1 °F 19.4 °F 74% 30.13 in 10.0 mi NNW 26.5 mph 38.0 mph N/A   Mostly Cloudy
11:35 PM 26.6 °F 10.3 °F 19.4 °F 74% 30.14 in 10.0 mi NNW 29.9 mph 38.0 mph N/A   Overcast
11:53 PM 25.0 °F 8.9 °F 18.0 °F 75% 30.21 in 10.0 mi NNW 26.5 mph 40.3 mph N/A   Overcast